OPS 4682 DEB, 38428

Orbit data source: Space-Track

OPS 4682 DEB, 38428 is space debris in LEO originally from a launch on Sat, 03 Apr 1965 UTC launched from the Air Force Western Test Range (AFWTR). Debris objects in space refer to the collection of defunct objects orbiting the Earth. Examples of debris include non-operational satellites, rocket bodies, and fragments generated from explosions, collisions, or faulty payload assembly.

Loading next visibility...
Identifier
38428, 1965-027EH
Orbit
LEO
Country
Flag of USUS
Related business
Manufacturer
Unknown
Mission
Spacecraft
Bus & Motor
Unknown
Mass
Unknown
Launch date (UTC)
1965-04-03 (61 years ago)
Launch vehicle
Unknown
Launch site
Air Force Western Test Range (AFWTR)
Object type
Payload
Rocket body
Debris
Shape & HBR
Unknown shape, 0.1 m
Radar Cross Section
Small (<0.1 m²)

Expand to show TLE details & history
Last TLE update: 6 days ago

TLE from 6 days ago
0 OPS 4682 DEB
1 38428U 65027EH  25288.50475983  .00000252  00000-0  84230-3 0  9990
2 38428  90.2488   7.7974 0043027 343.4527  16.5187 12.97352079566185
Epoch: 2025-10-15T12:06Z
TLE epoch observation values (Epoch: 2025-10-15T12:06:51.249Z)
Latitude
0.00001°
Longitude
161.80598°
Altitude
1,243.805 km
Speed
7.248 km/s
True Right ascension
00h 31m 11s
True Declination
0° 00' 00"
Sunlit
Object was in full shadow at epoch
Visualization orbit readout
Latitude
Unknown
Longitude
Unknown
Altitude
Unknown
Speed
Unknown
Apparent Right ascension
Unknown
Apparent Declination
Unknown
Sunlit
N/A
Visualization observer readout
Local Sidereal Time
12:39:39
Azimuth
Unknown
Elevation
Unknown
Doppler factor
Unknown
Orbital elements
Apogee altitude
1,302.516 km
Perigee altitude
1,236.704 km
Semi-major axis
7,647.747 km
Eccentricity
0.0043
Inclination
90.2488°
RAAN
7.7974°
Arg. of periapsis
343.4527°
True anomaly
16.65962°
Mean anomaly
16.5187°
Eccentric anomaly
16.58908°
Mean motion
3.24521 °/min
Orbital period
110.93 mins
BSTAR
0.0008423
Loading maneuver chart data...
Computing Atmospheric mass density...
Loading historical data...
Loading historical data...
Loading historical data...
Loading historical data...
Loading historical data...
Loading historical data...
Loading historical data...

Documentation

Showing up to 5 results
|